Wallops Island, VA

3:31 AM EST on December 11, 2019 (GMT -0500)
Wallops Flight Facility

Weather History for KWAL - October, 2019

Change the Weather History Date:

Tuesday, October 1, 2019

  Actual Average Record
Temperature  
Mean Temperature 70 °F 64 °F  
Max Temperature 77 °F 73 °F 89 °F (1986)
Min Temperature 64 °F 56 °F 41 °F (1993)
Degree Days  
Heating Degree Days 0    
Month to date heating degree days  
Since 1 July heating degree days  
Cooling Degree Days 6    
Month to date cooling degree days  
Year to date cooling degree days  
Growing Degree Days 20 (Base 50)    
Moisture  
Dew Point 63 °F    
Average Humidity 73    
Maximum Humidity 90    
Minimum Humidity 56    
Precipitation  
Precipitation 0.00 in 0.10 in 1.52 in (2015)
Month to date precipitation 0.10  
Year to date precipitation 31.47  
Sea Level Pressure  
Sea Level Pressure 30.11 in    
Wind  
Wind Speed 6 mph (SSE)    
Max Wind Speed 13 mph    
Max Gust Speed -    
Visibility 10 miles    
Events      
T = Trace of Precipitation, MM = Missing Value Source: NWS Daily Summary

Daily Weather History Graph

Daily Weather History Graph

Search for Another Location

Airport or City:

Astronomy

Oct. 01, 2019 Rise Set
Actual Time 6:57 AM EDT 6:45 PM EDT
Civil Twilight 6:31 AM EDT 7:11 PM EDT
Nautical Twilight 6:00 AM EDT 7:41 PM EDT
Astronomical Twilight 5:29 AM EDT 8:12 PM EDT
Moon 10:07 AM EDT (10/1) 9:00 PM EDT (10/1)
Length of Visible Light 12h 40m
Length of Day
11h 47m
Waxing Crescent, 12% of the Moon is Illuminated
Oct 1
Waxing Crescent
Oct 5
First Quarter
Oct 13
Full
Oct 21
Last Quarter
Oct 27
New

Hourly Weather History & Observations

Time (EDT) Temp. Dew Point Humidity Pressure Visibility Wind Dir Wind Speed Gust Speed Precip Events Conditions
12:54 AM 69.1 °F 60.1 °F 73% 30.18 in 10.0 mi ESE 6.9 mph - N/A   Overcast
1:54 AM 68.0 °F 60.1 °F 76% 30.16 in 10.0 mi ESE 5.8 mph - N/A   Overcast
2:54 AM 68.0 °F 60.1 °F 76% 30.14 in 10.0 mi ESE 4.6 mph - N/A   Overcast
3:54 AM 68.0 °F 61.0 °F 78% 30.15 in 10.0 mi Calm Calm - N/A   Overcast
4:54 AM 64.9 °F 60.1 °F 84% 30.15 in 10.0 mi Calm Calm - N/A   Overcast
5:54 AM 66.0 °F 61.0 °F 84% 30.15 in 10.0 mi NNW 3.5 mph - N/A   Overcast
6:54 AM 64.0 °F 61.0 °F 90% 30.16 in 10.0 mi Calm Calm - N/A   Mostly Cloudy
7:54 AM 66.9 °F 61.0 °F 81% 30.16 in 10.0 mi Calm Calm - N/A   Mostly Cloudy
8:54 AM 73.0 °F 61.0 °F 66% 30.16 in 10.0 mi Calm Calm - N/A   Mostly Cloudy
9:54 AM 73.0 °F 60.1 °F 64% 30.15 in 10.0 mi SE 5.8 mph - N/A   Scattered Clouds
10:54 AM 75.0 °F 60.1 °F 60% 30.15 in 10.0 mi SSE 8.1 mph - N/A   Scattered Clouds
11:54 AM 75.0 °F 63.0 °F 66% 30.14 in 10.0 mi SE 12.7 mph - N/A   Partly Cloudy
12:54 PM 75.9 °F 63.0 °F 64% 30.12 in 10.0 mi SSE 10.4 mph - N/A   Partly Cloudy
1:54 PM 77.0 °F 64.0 °F 64% 30.10 in 10.0 mi South 11.5 mph - N/A   Partly Cloudy
2:54 PM 77.0 °F 64.0 °F 64% 30.08 in 10.0 mi South 12.7 mph - N/A   Partly Cloudy
3:54 PM 75.9 °F 64.0 °F 67% 30.07 in 10.0 mi South 12.7 mph - N/A   Clear
4:54 PM 75.0 °F 64.9 °F 71% 30.05 in 10.0 mi South 12.7 mph - N/A   Clear
5:54 PM 73.9 °F 64.9 °F 73% 30.05 in 10.0 mi South 10.4 mph - N/A   Clear
6:54 PM 72.0 °F 64.9 °F 78% 30.04 in 10.0 mi South 11.5 mph - N/A   Clear
7:54 PM 72.0 °F 64.9 °F 78% 30.04 in 10.0 mi South 10.4 mph - N/A   Clear
8:54 PM 72.0 °F 66.0 °F 81% 30.04 in 10.0 mi South 9.2 mph - N/A   Clear
9:54 PM 71.1 °F 64.9 °F 81% 30.04 in 10.0 mi SSW 9.2 mph - N/A   Clear
10:54 PM 70.0 °F 64.0 °F 81% 30.03 in 10.0 mi SSW 8.1 mph - N/A   Clear
11:54 PM 70.0 °F 62.1 °F 76% 30.01 in 10.0 mi SSW 9.2 mph - N/A   Clear